User: anonymous   Login
Location: Poughquag
(41.6090°N, 73.6820°W)
Time: 17:48:47
(UTC-05:00)
Language:

DUCHIFAT 1 - Orbit

View from above orbital plane
View from above orbital plane
View from above satellite
View from above satellite

Ground track
Ground track

The orbit data is extracted from the following two-line orbital elements,

1 40021U 14033M   23332.38368026  .00014653  00000-0  11374-2 0  9994
2 40021  98.0751 302.1413 0015853  67.0381 293.2513 15.01363134513797
Epoch (UTC): 28 November 2023 09:12:29
Eccentricity: 0.0015853
inclination: 98.0751°
perigee height: 551 km
apogee height: 574 km
right ascension of ascending node: 302.1413°
argument of perigee: 67.0381°
revolutions per day: 15.01363134
mean anomaly at epoch: 293.2513°
orbit number at epoch: 51379

The dashed part of the orbit path shows where the satellite is in the earth's shadow,  

DLR